TimeCDT,TemperatureF,Dew PointF,Humidity,Sea Level PressureIn,VisibilityMPH,Wind Direction,Wind SpeedMPH,Gust SpeedMPH,PrecipitationIn,Events,Conditions,WindDirDegrees,DateUTC
12:53 AM,59.0,54.0,83,30.02,10.0,South,8.1,-,N/A,,Clear,180,2012-10-04 05:53:00
1:53 AM,60.1,54.0,80,30.04,10.0,South,6.9,-,N/A,,Clear,190,2012-10-04 06:53:00
2:53 AM,60.1,54.0,80,30.04,10.0,South,9.2,-,N/A,,Clear,190,2012-10-04 07:53:00
3:53 AM,61.0,54.0,78,30.04,10.0,SSW,10.4,-,N/A,,Clear,200,2012-10-04 08:53:00
4:53 AM,62.1,54.0,75,30.04,10.0,SSW,11.5,-,N/A,,Clear,200,2012-10-04 09:53:00
5:53 AM,62.1,54.0,75,30.06,10.0,SSW,11.5,-,N/A,,Clear,200,2012-10-04 10:53:00
6:53 AM,63.0,54.0,72,30.08,10.0,SSW,12.7,-,N/A,,Mostly Cloudy,210,2012-10-04 11:53:00
7:53 AM,62.1,54.0,75,30.11,10.0,SSW,10.4,-,N/A,,Clear,210,2012-10-04 12:53:00
8:53 AM,64.9,55.0,70,30.12,10.0,SW,11.5,-,N/A,,Clear,220,2012-10-04 13:53:00
9:53 AM,69.1,55.0,61,30.12,10.0,SW,10.4,19.6,N/A,,Clear,230,2012-10-04 14:53:00
10:53 AM,69.1,55.9,63,30.13,10.0,WSW,10.4,18.4,N/A,,Mostly Cloudy,240,2012-10-04 15:53:00
11:53 AM,71.1,55.0,57,30.14,10.0,WNW,11.5,19.6,N/A,,Clear,290,2012-10-04 16:53:00
12:53 PM,68.0,50.0,52,30.17,10.0,NW,11.5,20.7,N/A,,Scattered Clouds,320,2012-10-04 17:53:00
1:53 PM,68.0,48.0,49,30.17,10.0,NW,12.7,-,N/A,,Partly Cloudy,310,2012-10-04 18:53:00
2:53 PM,66.9,46.9,49,30.16,10.0,North,11.5,18.4,N/A,,Partly Cloudy,350,2012-10-04 19:53:00
3:53 PM,66.0,46.0,48,30.17,10.0,NNW,11.5,-,N/A,,Scattered Clouds,340,2012-10-04 20:53:00
4:53 PM,62.1,46.0,56,30.19,10.0,NNW,16.1,-,N/A,,Mostly Cloudy,340,2012-10-04 21:53:00
5:53 PM,59.0,46.0,62,30.20,10.0,NNW,12.7,-,N/A,,Mostly Cloudy,340,2012-10-04 22:53:00
6:53 PM,54.0,43.0,66,30.21,10.0,North,15.0,-,N/A,,Overcast,350,2012-10-04 23:53:00
7:53 PM,52.0,42.1,69,30.22,10.0,North,11.5,-,N/A,,Overcast,350,2012-10-05 00:53:00
8:53 PM,52.0,42.1,69,30.22,10.0,NNE,6.9,-,N/A,,Overcast,20,2012-10-05 01:53:00
9:53 PM,51.1,44.1,77,30.25,10.0,NNW,5.8,-,0.00,Rain,Light Rain,340,2012-10-05 02:53:00
10:06 PM,50.0,44.6,82,30.25,7.0,North,6.9,-,0.02,Rain-Thunderstorm,Light Rain,350,2012-10-05 03:06:00
10:21 PM,50.0,44.6,82,30.25,10.0,North,6.9,-,0.03,Rain,Light Rain,350,2012-10-05 03:21:00
10:41 PM,48.2,46.4,93,30.24,6.0,NNE,5.8,-,0.07,Rain-Thunderstorm,Light Rain,20,2012-10-05 03:41:00
10:53 PM,48.9,46.0,90,30.25,10.0,NNW,6.9,-,0.08,Rain-Thunderstorm,Light Thunderstorms and Rain,330,2012-10-05 03:53:00
11:53 PM,48.0,45.0,89,30.25,4.0,North,3.5,-,0.10,Rain-Thunderstorm,Thunderstorms and Rain,360,2012-10-05 04:53:00